Volver al catálogo

SL-8 R/B

ActivoLEO
NORAD 12983·ROCKET BODY·🇷🇺 Russia

Lanzado Nov 28, 1981 desde Plesetsk Cosmodrome

Loading…

Próximos Pases (próximas 24 horas)

TLE

ActualizadoSource: Space-Track

Época: Sep 14, 2026, 22:40 UTC

1 12983U 81116J   26257.94471006  .00000076  00000-0  81213-3 0  9994
2 12983  73.9818  74.6723 0114969 282.6100 248.0122 12.24801635737423

Sigue SL-8 R/B en tiempo real con AllMySat

Download on the App Store